Tracking 29892 objects as of 21-Nov-2024
HD Live streaming from Space Station
objects crossing your sky now

STARLINK-5975

Track STARLINK-5975 now!
10-day predictions
STARLINK-5975 is classified as:


NORAD ID: 57372
Int'l Code: 2023-099AW
Perigee: 565.4 km
Apogee: 567.0 km
Inclination: 43.0 °
Period: 95.8 minutes
Semi major axis: 6937 km
RCS: Unknown
Launch date: July 16, 2023
Source: United States (US)
Launch site: AIR FORCE EASTERN TEST RANGE (AFETR)
Your satellite tracking list
Your tracking list is empty




NASA's NSSDC Master Catalog

Two Line Element Set (TLE):
1 57372U 23099AW  24325.92736934 -.00000167  00000-0  26801-5 0  9993
2 57372  43.0042 289.9472 0001138 267.6521  92.4191 15.02532057 75000
Source of the keplerian elements: AFSPC